Location: Peterborough
(44.3091°N, 78.3197°W)
Time: 17:23:44
(UTC-04:00)

Explorer 7 - Pass Details

Date: 29 March 2023
Orbit: 477 x 653 km, 50.3° (Epoch: 04 June)

Event Time Altitude Azimuth Distance (km) Brightness Sun altitude
Rises 19:47:40 0° 289° (WNW) 2,857 12.7 -2.8°
Reaches altitude 10° 19:50:09 10° 297° (WNW) 1,921 11.1 -3.2°
Maximum altitude 19:54:15 38° 6° (N) 876 7.9 -3.9°
Drops below altitude 10° 19:58:08 10° 76° (ENE) 1,809 8.9 -4.6°
Enters shadow 19:59:16 - 81° (E) 2,232 9.3 -4.8°
Sets 20:00:25 0° 85° (E) 2,668 - -5.0°
